Index of /wp-hr-content/uploads/2020/05/

NameLast ModifiedSize
UpParent Directory
File20-0255-CANCELLATION-OF-TRAINING-PROGRAMS.pdf2020-05-17 00:12 64k
FileADMINISTRATIVE-ASSISTANT-DOA54-20.pdf2020-05-28 21:14 170k
FileADMINISTRATIVE-OFFICER-DOA48-20.pdf2020-05-28 21:14 169k
FileAmendment-II-responses-FY21-RFP-4.27.20-signed.pdf2020-05-04 06:27 440k
FileAmendment-III-4.27.20-FInal-signed.pdf2020-05-04 06:27 295k
FileBUDGET-AND-MANAGEMENT-ANALYST-SUPERVISOR-DOA70-20.pdf2020-05-27 20:55 134k
FileCHEMICAL-DEPENDENCY-TREATMENT-SPECIALIST-II-DOA37-20.pdf2020-05-28 21:14 167k
FileCOMMODITY-INSPECTOR-I-DOA53-20.pdf2020-05-28 21:14 177k
FileCOMMUNICABLE-DISEASE-CONTROL-COORDINATOR-I-DOA55-20.pdf2020-05-28 21:14 168k
FileCOMMUNICABLE-DISEASE-CONTROL-COORDINATOR-II-DOA56-20.pdf2020-05-28 21:14 194k
FileCOMMUNITY-HEALTH-NURSE-I-DOA57-20.pdf2020-05-28 21:14 172k
FileCOMMUNITY-HEALTH-NURSE-II-DOA58-20.pdf2020-05-28 21:14 182k
FileCOMMUNITY-PROGRAM-AIDE-II-DOA52-20.pdf2020-05-28 21:14 166k
FileCOMPUTER-OPERATOR-III-DOA49-20.pdf2020-05-28 21:14 169k
FileCUSTOMER-SERVICE-SUPERVISOR-DOA59-20.pdf2020-05-28 21:14 165k
FileDOA-CIRCULAR-2015-004-WORK-PLANNING-PERFORMANCE-EVALUATION-FORM.pdf2020-05-29 09:41 43k
FileDOA-CIRCULAR-2015-019-Nana-Yan-Patgon-Act-PL32-098.pdf2020-05-29 09:41 38k
FileDOA-CIRCULAR-2016-028-LEAVE-OF-ABSENCE-REQUEST-FOR-MEDICAL-REASONS.pdf2020-05-29 09:43 201k
FileDOA-Circular-2018-013-Personnel-Advisory-Development-of-Plan-and-Furlough-Req...2020-05-29 09:31 66k
FileDOA-CIRCULAR-2019-002-VOTER-PRECINCT-BOARD-MEMBER.pdf2020-05-29 09:31 223k
FileDOA-CIRCULAR-2019-011-CTA-COMP-TIME-2019.pdf2020-05-29 09:31 115k
FileDOA-CIRCULAR-2019-015-DOA-FUNCTIONS.pdf2020-05-29 09:31 329k
FileDOA-CIRCULAR-2019-019-TELECOMMUNICATION-AND-INTERNEW-SERVICES.pdf2020-05-29 09:31 56k
FileDOA-CIRCULAR-2019-023-FY2019-3RD-QUARTER-CLOSING.pdf2020-05-29 09:31 180k
FileDOA-CIRCULAR-2019-029-FY2020-HEALTH-INSURANCE.pdf2020-05-29 09:31 36k
FileDOA-CIRCULAR-2019-036-STAFFING-PATTER-AND-ORG-CHARTS-REQEST-FY20.pdf2020-05-29 09:31 48k
FileDOA-CIRCULAR-2020-003-EEO-OFFICIALS.pdf2020-05-29 09:05 105k
FileDOA-CIRCULAR-2020-004-DETAIL-APPOINTMENTS.pdf2020-05-29 08:57 104k
FileDOA-CIRCULAR-2020-010-REDUCE-EXPOSURE-OF-COVID-19-CONTROLS.pdf2020-05-29 09:08 2273k
FileDOA-CIRCULAR-2020-011-MANDATORY-DIRECT-DEPOSIT.pdf2020-05-29 09:07 220k
FileDOA-CIRCULAR-2020-012-ESSENTIAL-EMPLOYEE-DESIGNATION-COVID-19.pdf2020-05-29 09:07 209k
FileDOA-CIRCULAR-2020-013-PAY-DIFFERENTIAL-CALCUALTION-REVISED.pdf2020-05-29 09:07 98k
FileDOA-CIRCULAR-2020-014-EMPLOYEE-FACE-COVERINGS-GUIDANCE.pdf2020-05-29 09:07 848k
FileDOA-CIRCULAR-2020-020-FAMILY-FIRST-CORONAVIRUS-RESPONSE-ACT-FMLA.pdf2020-05-29 09:07 106k
FileDOA-CIRCULAR-2020-15-PAY-DIFFERENTIAL-CALCULATION-PAYMENT.pdf2020-05-15 08:03 319k
FileDOA-Circular-No-2020-016-Insurance-Processing-Covid-19-signed-3-1.pdf2020-05-29 09:14 390k
FileDOA-Circular-No-2020-016-Insurance-Processing-Covid-19-signed-3.pdf2020-05-29 09:08 390k
FileDOA-CIRCULAR-NO.-2015-018-CERTIFICATION-PACKETS.pdf2020-05-29 09:39 204k
FileFOIA-Ngirairikl-08-Apr-20.pdf2020-05-29 10:07 1322k
FileFY21-RFP-Amendment-1-4.6.20-signed.pdf2020-05-04 06:27 490k
FileGovGuam-Enrollment-Form_Interactive.pdf2020-05-15 07:02 107k
FileINCOME-TAX-SERVICE-SPECIALIST-II-DOA60-20.pdf2020-05-28 21:14 185k
FileLIFEGUARD-DOA45-20.pdf2020-05-28 21:14 171k
FileMAINTENANCE-WORKER-DOA61-20.pdf2020-05-28 21:14 166k
FileMANAGEMENT-ANALYST-IV-DOA51-20.pdf2020-05-28 21:14 169k
FilePAROLE-OFFICER-II-DOA68-20.pdf2020-05-27 20:55 138k
FilePLANNER-III-DEPT-DOA77-20.pdf2020-05-27 20:55 130k
FilePLANNER-III-DOA69-20.pdf2020-05-27 20:55 124k
FilePROGRAM-COORDINATOR-I-DOA62-20.pdf2020-05-28 21:14 166k
FilePROGRAM-COORDINATOR-II-DOA65-20.pdf2020-05-27 20:55 126k
FilePROGRAM-COORDINATOR-IV-DOA63-20.pdf2020-05-28 21:14 180k
FileQUALITY-CONTROL-SUPERVISOR-DOA66-20.pdf2020-05-27 20:55 133k
FileREGULATORY-EXAMINER-I-DOA50-20.pdf2020-05-28 21:14 180k
FileSECRETARY-I-TYPIST-DOA67-20.pdf2020-05-27 20:55 129k
FileSIC-ACTIVE-FORM.pdf2020-05-15 07:02 53k
FileSIC-RETIREE-FORM.pdf2020-05-15 07:02 49k
FileSTAGE-MAINTENANCE-TECHNICIAN-DOA47-20.pdf2020-05-28 21:14 167k
Proudly Served by LiteSpeed Web Server at hr.doa.guam.gov Port 443